Hauptseite
METAR-TAF:

METAR-TAF

Flughäfen :

Flugplatz Hamburg-Finkenwerder

Finkenwerder, Deutschland

Breite: 53-32N, Länge: 009-50E, Höhe: 5 m

Beobachtung

Neuester Wetterbericht von vor 38 Minuten, um 03:50 UTC
Wind 17 kt aus West
Temperatur 4°C
Luftfeuchtigkeit 87%
Luftdruck 1012 hPa
Sichtweite: 1900 m

METAR: EDHI 250350Z AUTO 27017KT 1900 // SCT014/// BKN016/// OVC031/// 04/02 Q1012

Zeit: 05:28 (04:28 UTC)


TAF: fehlend

Wetterbeobachtungen und Prognosen von mehr als 4000 Flughäfen (METAR und TAF Bericht).

Die verfügbaren Stationen werden durch gelbe und rote Markierungen auf der Karte dargestellt.

Führen Sie die Maus auf sie, um den Namen der Station zu sehen.

Darauf klicken, um die Beobachtung von Wetterbeobachtungen und Prognosen zu sehen.

Um die Karte zu ändern : klicken Sie auf den grünen Tasten mit einem schwarzen Kreuz Zum Vergrößern, auf den grünen Button mit einem Gedankenstrich zu verkleinern, oder auf die grünen Pfeile für benachbarte Karten.


METAR-TAF: